Location: Bletchingley
(51.2333°N, 0.1000°W)
Time: 15:20:26
(UTC+00:00)

Cosmos 2266 Rocket - Pass Details

Date: 18 January 2021
Orbit: 934 x 1008 km, 82.9° (Epoch: 05 March)

Event Time Altitude Azimuth Distance (km) Brightness Sun altitude
Rises 06:46:54 0° 353° (N) 3,641 6.7 -10.4°
Reaches altitude 10° 06:49:33 10° 359° (N) 2,682 6.1 -10.0°
Maximum altitude 06:55:23 44° 72° (ENE) 1,272 5.1 -9.2°
Drops below altitude 10° 07:01:07 10° 144° (SE) 2,641 7.3 -8.3°
Sets 07:03:42 0° 150° (SSE) 3,579 7.9 -8.0°
